This is the latest recevied weather packets stored in our database for station/object KD8JAM. If no packets are shown the sender has not sent any weather packets the latest 10 day(s).
| Time | Temp. | Humidity | Pressure | Rain* | Wind** | Luminosity | Snow |
|---|---|---|---|---|---|---|---|
| 1777667446 | 4.44° C | 62% | 1019 hPa | 0 mm | - | 616 W/m² | - |
| 1777667143 | 5° C | 58% | 1019.2 hPa | 0 mm | - | 628 W/m² | - |
| 1777666839 | 4.44° C | 60% | 1019 hPa | 0 mm | - | 638 W/m² | - |
| 1777666537 | 5° C | 59% | 1019 hPa | 0 mm | - | 652 W/m² | - |
| 1777666233 | 5° C | 61% | 1019 hPa | 0 mm | - | 664 W/m² | - |
| 1777665930 | 5° C | 59% | 1019.2 hPa | 0 mm | - | 661 W/m² | - |
| 1777665628 | 4.44° C | 60% | 1018.9 hPa | 0 mm | - | 676 W/m² | - |
| 1777665325 | 5° C | 61% | 1019.1 hPa | 0 mm | - | 679 W/m² | - |
| 1777665020 | 5° C | 60% | 1019.1 hPa | 0 mm | - | 670 W/m² | - |
| 1777664716 | 5° C | 61% | 1019.2 hPa | 0 mm | - | 667 W/m² | - |
| 1777664412 | 5° C | 60% | 1019.2 hPa | 0 mm | - | 681 W/m² | - |
| 1777664110 | 5° C | 61% | 1019.3 hPa | 0 mm | - | 696 W/m² | - |
| 1777663808 | 4.44° C | 61% | 1019.1 hPa | 0 mm | - | 677 W/m² | - |
| 1777663505 | 5° C | 59% | 1019.4 hPa | 0 mm | - | 698 W/m² | - |
| 1777663203 | 5° C | 58% | 1019.4 hPa | 0 mm | - | 717 W/m² | - |
| 1777662899 | 5° C | 60% | 1019.4 hPa | 0 mm | - | 710 W/m² | - |
| 1777662596 | 5° C | 58% | 1019.2 hPa | 0 mm | - | 715 W/m² | - |
| 1777662292 | 4.44° C | 60% | 1019.2 hPa | 0 mm | - | 721 W/m² | - |
| 1777661987 | 5° C | 60% | 1019.6 hPa | 0 mm | - | 722 W/m² | - |
| 1777661683 | 4.44° C | 60% | 1019.3 hPa | 0 mm | - | 726 W/m² | - |
| 1777661380 | 4.44° C | 61% | 1019.1 hPa | 0 mm | - | 728 W/m² | - |
| 1777661076 | 4.44° C | 60% | 1019.3 hPa | 0 mm | - | 726 W/m² | - |
| 1777660771 | 4.44° C | 62% | 1019.2 hPa | 0 mm | - | 727 W/m² | - |
| 1777660468 | 5.56° C | 62% | 1019.3 hPa | 0 mm | - | 733 W/m² | - |
| 1777660164 | 5° C | 61% | 1019.6 hPa | 0 mm | - | 733 W/m² | - |
* Rain latest hour (hover to see other rain measurements)
** Current wind speed in m/s (hover to see current wind gust speed)